sat.trackr.live / text

‹ back to catalog

STARLINK-2383

NORAD 47802 · 2021-018R

PAYLOAD ACTIVE UNKNOWN

§ Identity

Operator
Country
US
Launch date
2021-03-11
Launch site
AFETR
Launch vehicle
Mass (kg)
RCS (m²)

Purposes: comms

External: N2YO · Heavens-Above · Gunter

§ Orbital elements

Epoch: 2026-09-19T20:08:24.495360Z

Period
94.01 min
Inclination
53.1587°
Eccentricity
0.0000628
Mean motion
15.31707247 rev/d
Perigee alt
470.3 km
Apogee alt
471.1 km
Semi-major
6,848.9 km
B*
-2.8388e-5
RAAN
72.3173°
Arg perigee
68.1818°
Mean anomaly
291.9250°
Rev number
30,629

§ Raw data

STARLINK-23831 47802U 21018R   26262.83917240 -.00001246  00000+0 -28388-4 0  99922 47802  53.1587  72.3173 0000628  68.1818 291.9250 15.31707247306298

JSON: /api/v1/satellites/47802 · /tle

For live sub-satellite position, see the globe view (requires WebGL).

§ Visibility from observer

Set your observer location to see the next 7 days of passes ≥ 10°. The values pass through the URL so the page stays shareable.

No JS? Fill the form by hand. The geolocation button needs JavaScript.